Location: Newark
(43.0000°N, 1.6781°W)
Time: 02:10:54
(UTC+00:00)

Vanguard 1 Rocket - Pass Details

Date: 22 April 2021
Orbit: 652 x 4224 km, 34.3° (Epoch: 06 May)

Event Time Altitude Azimuth Distance (km) Brightness Sun altitude
Rises 12:34:58 0° 233° (SW) 4,676 11.4 58.7°
Reaches altitude 10° 12:39:14 10° 222° (SW) 3,155 10.8 58.5°
Maximum altitude 12:44:48 25° 170° (S) 1,709 9.8 58.2°
Drops below altitude 10° 12:48:49 10° 114° (ESE) 2,210 9.6 58.0°
Sets 12:51:13 0° 100° (E) 3,009 10.0 57.8°
